{"data":{"norad_id":65855,"intl_designator":"2025-223B","name":"STARLINK-35200","alt_names":[],"object_type":"PAYLOAD","status":"ACTIVE","operator":null,"country":"US","launch_date":"2025-10-03","launch_site_code":"AFWTR","launch_vehicle":null,"mission":null,"orbit_class":"UNKNOWN","rcs_meters":null,"size_class":null,"mass_kg":null,"dimensions":null,"purposes":["comms"],"wikipedia_slug":null,"has_3d_model":false,"image_url":null,"decayed_at":null,"tle_current":{"epoch":"2026-05-25T03:56:00.659328Z","epoch_age_seconds":54788,"freshness":"FRESH","line1":"1 65855U 25223B   26145.16389652  .00026046  00000+0  88808-3 0  9993","line2":"2 65855  53.1603 298.9968 0001014  74.4736 285.6377 15.30212976 35919","mean_motion":15.30212976,"eccentricity":0.0001014,"inclination_deg":53.1603,"raan_deg":298.9968,"arg_perigee_deg":74.4736,"mean_anomaly_deg":285.6377,"bstar":0.00088808,"rev_number":3591,"period_min":94.104547705783,"perigee_km":474.48139972483,"apogee_km":475.87125166728,"semimajor_km":6853.3133256961,"source":"CELESTRAK","updated_at":"2026-05-25T13:38:20.948353Z"}}}